Regional Weather Roundup
Issued by NWS

Home | Current Version | Previous Version | Graphics & Text | Print | Product List | Glossary On
Versions: 1 2 3 4 5 6 7 8 9 10 11 12 13 14 15 16 17 18 19 20 21 22 23 24 25 26 27 28 29 30 31 32 33 34 35 36 37 38 39 40 41 42 43 44 45 46 47 48 49 50
000
ASUS45 KCYS 210010
RWRWY

WYOMING REGIONAL WEATHER ROUNDUP
NATIONAL WEATHER SERVICE CHEYENNE WY
500 PM MST MON NOV 20 2017

NOTE:  "FAIR" INDICATES FEW OR NO CLOUDS BELOW 12,000 FEET
WITH NO SIGNIFICANT WEATHER AND/OR OBSTRUCTIONS TO VISIBILITY.

WYZ001-210100-
YELLOWSTONE NATIONAL PARK

CITY           SKY/WX    TMP DP  RH WIND       PRES   REMARKS
LK YELLOWSTONE   N/A     27  25  92 VRB3      29.97S
6HR MIN TEMP:  27; 6HR MAX TEMP:  30; 6HR PCP:  0.10;

W YELLOWSTONE  NOT AVBL

$$
WYZ002>013-054>058-071-098>099-210100-
NORTHERN WYOMING

CITY           SKY/WX    TMP DP  RH WIND       PRES   REMARKS
JACKSON        LGT SNOW  33  30  88 SW13      30.00F FOG     WCI  24
CODY           FAIR      43  29  57 W16G29    29.80F
GREYBULL       MOCLDY    37  26  64 S5        29.79S WCI  33
6HR MIN TEMP:  34; 6HR MAX TEMP:  42;

WORLAND        FAIR      33  27  78 CALM      29.79S
6HR MIN TEMP:  33; 6HR MAX TEMP:  40;

SHERIDAN       CLOUDY    51  27  39 N5        29.71R
6HR MIN TEMP:  50; 6HR MAX TEMP:  62;

BUFFALO        CLOUDY    47  24  40 CALM      29.75R
6HR MIN TEMP:  46; 6HR MAX TEMP:  54;

GILLETTE       MOCLDY    44  24  45 SW9       29.72S
6HR MIN TEMP:  35; 6HR MAX TEMP:  57;

HULETT         CLOUDY    50  23  34 CALM      29.73R
NEWCASTLE      FAIR      45  19  36 NW5       29.76R

$$
WYZ014>020-022>026-101>103-210100-
CENTRAL WYOMING

CITY           SKY/WX    TMP DP  RH WIND       PRES   REMARKS
BIG PINEY      CLOUDY    32  26  78 N7        30.03R WCI  26
6HR MIN TEMP:  26; 6HR MAX TEMP:  38;

PINEDALE       CLOUDY    36  23  60 CALM      30.03R
DUBOIS         LGT SNOW  32  28  86 N15G33    29.92R WCI  22
LANDER         FAIR      42  21  43 CALM      29.83R
6HR MIN TEMP:  42; 6HR MAX TEMP:  49;

RIVERTON       FAIR      38  23  55 W6        29.85R WCI  33
6HR MIN TEMP:  38; 6HR MAX TEMP:  49;

CASPER         FAIR      44  20  38 SW17      29.83F
6HR MIN TEMP:  44; 6HR MAX TEMP:  47;

DOUGLAS        FAIR      48  23  37 W13G23    29.81R
6HR MIN TEMP:  48; 6HR MAX TEMP:  55;


$$
WYZ021-027>030-104>119-210100-
SOUTHERN WYOMING

CITY           SKY/WX    TMP DP  RH WIND       PRES   REMARKS
EVANSTON       CLOUDY    37  26  64 SW20      30.10R WCI  27
6HR MIN TEMP:  36; 6HR MAX TEMP:  40;

KEMMERER       FAIR      32  27  80 W28       30.03F WCI  18
FORT BRIDGER   MOCLDY    37  27  67 W21G28    30.08R WCI  27
ROCK SPRINGS   MOCLDY    36  20  52 VRB5      30.04R WCI  32
6HR MIN TEMP:  35; 6HR MAX TEMP:  39;

DIXON          MOCLDY    41  14  33 S18G24    30.02F
RAWLINS        FLURRIES  37  21  52 SW24G35   29.95R WCI  26
6HR MIN TEMP:  37; 6HR MAX TEMP:  42; 6HR PCP: TRACE;

SARATOGA       CLOUDY    41  16  36 SE8       29.99F
LARAMIE        MOCLDY    43  10  26 SW16G28   29.94S
6HR MIN TEMP:  43; 6HR MAX TEMP:  49;

CHEYENNE       FAIR      51  11  20 CALM      29.87R
6HR MIN TEMP:  50; 6HR MAX TEMP:  58;

TORRINGTON     FAIR      55  17  22 W21G28    29.78S
6HR MIN TEMP:  55; 6HR MAX TEMP:  59;

PINE BLUFFS    FAIR      54  10  17 W16G30    29.84R

$$



USA.gov is the U.S. government's official web portal to all federal, state and local government web resources and services.